Oak Ridge, TN

12:23 AM EST on November 12, 2019 (GMT -0500)
Oak Ridge

Weather History for KOQT - September, 2019

Change the Weather History Date:

Friday, September 20, 2019

  Actual Average (WUND) Record (WUND)
Temperature  
Mean Temperature 76 °F -  
Max Temperature 86 °F - - (-1)
Min Temperature 66 °F - - (-1)
Cooling Degree Days 11    
Growing Degree Days 26 (Base 50)    
Moisture  
Dew Point 59 °F    
Average Humidity 61    
Maximum Humidity 81    
Minimum Humidity 40    
Precipitation  
Precipitation 0.00 in - - ()
Sea Level Pressure  
Sea Level Pressure 30.22 in    
Wind  
Wind Speed 1 mph ()    
Max Wind Speed 7 mph    
Max Gust Speed -    
Visibility 10.0 miles    
Events      
Averages and records for this station are not official NWS values.
T = Trace of Precipitation, MM = Missing Value Source: Averaged Metar Reports

Daily Weather History Graph

Daily Weather History Graph

Search for Another Location

Airport or City:

Astronomy

Sep. 20, 2019 Rise Set
Actual Time 7:23 AM EDT 7:37 PM EDT
Civil Twilight 6:57 AM EDT 8:02 PM EDT
Nautical Twilight 6:27 AM EDT 8:32 PM EDT
Astronomical Twilight 5:57 AM EDT 9:02 PM EDT
Moon 11:37 PM EDT (9/20) 1:16 PM EDT (9/20)
Length of Visible Light 13h 05m
Length of Day
12h 13m
Waning Gibbous, 65% of the Moon is Illuminated
Sep 20
Waning Gibbous
Sep 21
Last Quarter
Sep 28
New
Oct 5
First Quarter
Oct 13
Full

Hourly Weather History & Observations

Time (EDT) Temp. Heat Index Dew Point Humidity Pressure Visibility Wind Dir Wind Speed Gust Speed Precip Events Conditions
12:53 AM 68.0 °F - 61.0 °F 78% 30.18 in 10.0 mi Calm Calm - N/A   Clear
1:53 AM 66.9 °F - 61.0 °F 81% 30.20 in 10.0 mi Calm Calm - N/A   Mostly Cloudy
2:53 AM 69.1 °F - 57.9 °F 68% 30.20 in 10.0 mi Calm Calm - N/A   Overcast
3:53 AM 68.0 °F - 59.0 °F 73% 30.19 in 10.0 mi Calm Calm - N/A   Mostly Cloudy
4:53 AM 66.9 °F - 59.0 °F 76% 30.21 in 10.0 mi SW 3.5 mph - N/A   Overcast
5:53 AM 66.9 °F - 57.9 °F 73% 30.22 in 10.0 mi Calm Calm - N/A   Overcast
6:53 AM 66.9 °F - 57.9 °F 73% 30.24 in 10.0 mi Calm Calm - N/A   Overcast
7:53 AM 66.9 °F - 57.9 °F 73% 30.26 in 10.0 mi Calm Calm - N/A   Overcast
8:53 AM 68.0 °F - 57.9 °F 70% 30.27 in 10.0 mi Variable 3.5 mph - N/A   Mostly Cloudy
9:53 AM 71.1 °F - 55.9 °F 59% 30.28 in 10.0 mi West 5.8 mph - N/A   Partly Cloudy
10:53 AM 73.0 °F - 55.9 °F 55% 30.29 in 10.0 mi Variable 3.5 mph - N/A   Overcast
11:53 AM 77.0 °F - 57.0 °F 50% 30.28 in 10.0 mi Variable 3.5 mph - N/A   Mostly Cloudy
12:53 PM 79.0 °F - 57.0 °F 47% 30.26 in 10.0 mi Variable 6.9 mph - N/A   Partly Cloudy
1:53 PM 81.0 °F 81.0 °F 57.0 °F 44% 30.24 in 10.0 mi Calm Calm - N/A   Clear
2:53 PM 84.0 °F 83.5 °F 57.9 °F 41% 30.20 in 10.0 mi Variable 4.6 mph - N/A   Clear
3:53 PM 84.9 °F 84.2 °F 57.9 °F 40% 30.18 in 10.0 mi Variable 3.5 mph - N/A   Clear
4:53 PM 84.9 °F 84.4 °F 59.0 °F 41% 30.18 in 10.0 mi SE 3.5 mph - N/A   Clear
5:53 PM 86.0 °F 85.4 °F 59.0 °F 40% 30.17 in 10.0 mi Calm Calm - N/A   Clear
6:53 PM 84.0 °F 83.8 °F 59.0 °F 43% 30.17 in 10.0 mi Variable 3.5 mph - N/A   Clear
7:53 PM 80.1 °F 80.9 °F 60.1 °F 50% 30.18 in 10.0 mi Calm Calm - N/A   Clear
8:53 PM 75.0 °F - 61.0 °F 62% 30.20 in 10.0 mi Calm Calm - N/A   Clear
9:53 PM 72.0 °F - 62.1 °F 71% 30.22 in 10.0 mi Calm Calm - N/A   Clear
10:53 PM 70.0 °F - 62.1 °F 76% 30.23 in 10.0 mi Calm Calm - N/A   Clear
11:53 PM 70.0 °F - 62.1 °F 76% 30.24 in 10.0 mi Calm Calm - N/A   Clear